TimeMDT,TemperatureF,Dew PointF,Humidity,Sea Level PressureIn,VisibilityMPH,Wind Direction,Wind SpeedMPH,Gust SpeedMPH,PrecipitationIn,Events,Conditions,WindDirDegrees,DateUTC
12:53 AM,73.9,46.9,38,29.60,10.0,SSE,20.7,28.8,N/A,,Clear,160,2013-06-25 06:53:00
1:53 AM,69.1,53.1,57,29.60,10.0,SW,5.8,-,N/A,,Clear,230,2013-06-25 07:53:00
2:53 AM,69.1,55.0,61,29.60,10.0,SSW,5.8,-,N/A,,Clear,210,2013-06-25 08:53:00
3:53 AM,66.9,57.9,73,29.63,10.0,SW,5.8,-,N/A,,Clear,230,2013-06-25 09:53:00
4:53 AM,64.9,59.0,81,29.67,10.0,Calm,Calm,-,N/A,,Clear,0,2013-06-25 10:53:00
5:53 AM,64.9,62.1,90,29.68,10.0,WSW,8.1,-,N/A,,Clear,240,2013-06-25 11:53:00
6:53 AM,66.9,63.0,87,29.70,10.0,Calm,Calm,-,N/A,,Clear,0,2013-06-25 12:53:00
7:53 AM,72.0,60.1,66,29.71,10.0,WSW,8.1,-,N/A,,Clear,250,2013-06-25 13:53:00
8:53 AM,77.0,55.9,48,29.68,10.0,WSW,9.2,-,N/A,,Clear,240,2013-06-25 14:53:00
9:53 AM,80.1,55.0,42,29.67,10.0,SW,11.5,-,N/A,,Clear,230,2013-06-25 15:53:00
10:53 AM,81.0,50.0,34,29.68,10.0,West,15.0,26.5,N/A,,Clear,270,2013-06-25 16:53:00
11:53 AM,82.9,52.0,34,29.68,10.0,West,18.4,29.9,N/A,,Clear,260,2013-06-25 17:53:00
12:53 PM,84.9,51.1,31,29.67,10.0,West,18.4,28.8,N/A,,Clear,280,2013-06-25 18:53:00
1:53 PM,84.9,52.0,32,29.70,10.0,NW,18.4,29.9,N/A,,Clear,310,2013-06-25 19:53:00
2:53 PM,84.9,52.0,32,29.72,10.0,WNW,19.6,27.6,N/A,,Partly Cloudy,300,2013-06-25 20:53:00
3:53 PM,84.9,52.0,32,29.73,10.0,WNW,11.5,32.2,N/A,,Clear,300,2013-06-25 21:53:00
4:53 PM,84.0,57.0,40,29.73,10.0,NNE,12.7,-,N/A,,Partly Cloudy,20,2013-06-25 22:53:00
5:53 PM,82.0,55.9,41,29.74,10.0,ENE,12.7,-,N/A,,Clear,70,2013-06-25 23:53:00
6:53 PM,79.0,55.0,44,29.76,10.0,ENE,9.2,-,N/A,,Clear,60,2013-06-26 00:53:00
7:53 PM,75.0,57.0,53,29.77,10.0,ENE,6.9,-,N/A,,Clear,70,2013-06-26 01:53:00
8:53 PM,68.0,59.0,73,29.78,10.0,NE,4.6,-,N/A,,Clear,50,2013-06-26 02:53:00
9:53 PM,64.9,57.9,78,29.81,10.0,Calm,Calm,-,N/A,,Clear,0,2013-06-26 03:53:00
10:53 PM,61.0,57.9,90,29.83,10.0,West,3.5,-,N/A,,Clear,270,2013-06-26 04:53:00
11:53 PM,57.9,55.9,93,29.84,10.0,SW,4.6,-,N/A,,Clear,230,2013-06-26 05:53:00